Location: New Frontier Mobile Home Park
(32.8448°N, 116.9675°W)
Time: 23:12:43
(UTC+00:00)

SL-16 R/B - Pass Details

Date: 14 July 2020
Orbit: 985 x 1006 km, 99.5° (Epoch: 05 August)

Event Time Altitude Azimuth Distance (km) Brightness Sun altitude
Exits shadow 10:42:29 27° 272° (W) 1,815 3.6 -22.3°
Drops below altitude 10° 10:47:08 10° 320° (NW) 2,780 5.0 -21.7°
Sets 10:50:03 0° 332° (NNW) 3,736 5.8 -21.2°
